Showing default

WNISAT 1R, 42835

Orbit data source: Space-Track

WNISAT 1R, 42835 is a payload satellite owned by WNI (JP) in SSO that was launched on Fri, 14 Jul 2017 UTC via a SOYUZ-2-1A launch vehicle from the Tyuratam Missile And Space Complex (TTMTR). Payload-class satellites include a variety of spacecraft equipped with specific instruments for various scientific and technological missions. These include communications satellites like Starlink; space stations such as the ISS; scientific satellites like the Hubble; Earth observation satellites from companies like Planet Labs, Umbra, and HawkEye 360; GPS; miniature CubeSats for education and research; and military/defense satellites.

Loading next visibility...
Identifier
42835, 2017-042L
Orbit
SSO
Country
Flag of JPJP / JPN
Related business
Manufacturer
AXELSPACE
Mission
Operational Commercial Weather
Bus & Motor
HODOYOSHI, Unknown motor
Mass
40 kg wet, 40 kg dry
Launch date (UTC)
2017-07-14 (8 years ago)
Launch vehicle
SOYUZ-2-1A
Launch site
Tyuratam Missile And Space Complex (TTMTR)
Object type
Payload
Rocket body
Debris
Shape & HBR
Box + 2 Pan, 0.8 m
Radar Cross Section
0.514 m², Medium (>0.1 m² and < 1m²)

Expand to show TLE details & history
Last TLE update: 18 hours ago

TLE from 18 hours ago
0 WNISAT 1R
1 42835U 17042L   25286.88355063  .00004262  00000-0  34832-3 0  9994
2 42835  97.4227  88.2958 0008210 242.6301 117.4088 14.99850621449566
Epoch: 2025-10-13T21:12Z
TLE epoch observation values (Epoch: 2025-10-13T21:12:18.774Z)
Latitude
-0.00003°
Longitude
107.53764°
Altitude
573.049 km
Speed
7.573 km/s
True Right ascension
05h 53m 10s
True Declination
0° 00' 00"
Sunlit
Object was in daylight at epoch
Visualization orbit readout
Latitude
Unknown
Longitude
Unknown
Altitude
Unknown
Speed
Unknown
Apparent Right ascension
Unknown
Apparent Declination
Unknown
Sunlit
N/A
Visualization observer readout
Local Sidereal Time
09:41:15
Azimuth
Unknown
Elevation
Unknown
Doppler factor
Unknown
Orbital elements
Apogee altitude
570.051 km
Perigee altitude
558.651 km
Semi-major axis
6,942.488 km
Eccentricity
0.00082
Inclination
97.4227°
RAAN
88.2958°
Arg. of periapsis
242.6301°
True anomaly
117.49228°
Mean anomaly
117.4088°
Eccentric anomaly
117.45054°
Mean motion
3.75207 °/min
Orbital period
95.95 mins
BSTAR
0.00034832
Loading maneuver chart data...
Computing Atmospheric mass density...

Documentation

Showing up to 5 results
|